Location: Auttagershofen
(48.1940°N, 10.0237°E)
Time: 06:14:20
(UTC+00:00)

Cosmos 1500 Rocket - Pass Details

Date: 18 January 2026
Orbit: 597 x 623 km, 82.5° (Epoch: 17 February)

Event Time Altitude Azimuth Distance (km) Brightness Sun altitude
Rises 05:18:00 0° 211° (SSW) 2,859 6.8 -17.1°
Reaches altitude 10° 05:20:21 10° 220° (SW) 1,964 5.9 -16.8°
Maximum altitude 05:24:20 35° 287° (WNW) 1,004 4.1 -16.1°
Drops below altitude 10° 05:28:24 10° 354° (N) 1,993 6.0 -15.5°
Sets 05:30:48 0° 3° (N) 2,908 6.9 -15.1°
